Location: Abbey Hill
(34.0751°N, 84.0688°W)
Time: 17:58:42
(UTC+00:00)

X-37B - Pass Details

Date: 21 September 2021
Orbit: 385 x 389 km, 45.0° (Epoch: 13 October)

Event Time Altitude Azimuth Distance (km) Brightness Sun altitude
Exits shadow 10:27:53 22° 269° (W) 896 1.8 -12.4°
Maximum altitude 10:29:33 44° 332° (NNW) 545 1.1 -12.0°
Drops below altitude 10° 10:32:37 10° 46° (NE) 1,413 4.3 -11.4°
Sets 10:34:45 0° 53° (NE) 2,271 5.7 -11.0°
